Regional Weather Roundup
Issued by NWS San Angelo, TX

Home | Current Version | Previous Version | Text Only | Print | Product List | Glossary On
Versions: 1 2 3 4 5 6 7 8 9 10 11 12 13 14 15 16 17 18 19 20 21 22 23 24 25 26 27 28 29 30 31 32 33 34 35 36 37 38 39 40 41 42 43 44 45 46 47 48 49 50
000
ASUS44 KSJT 201810
RWRSJT
WEST CENTRAL TEXAS REGIONAL WEATHER ROUNDUP
NATIONAL WEATHER SERVICE SAN ANGELO TX
100 PM CDT WED AUG 20 2014

NOTE: "FAIR" INDICATES FEW OR NO CLOUDS BELOW 12,000 FEET WITH NO
SIGNIFICANT WEATHER AND/OR OBSTRUCTIONS TO VISIBILITY.

TXZ049-054-064>066-071>073-076>078-098-099-113-114-127-128-139-140-
154-155-168>170-201900
...LOCATIONS ACROSS WEST CENTRAL TEXAS...

CITY           SKY/WX    TMP DP  RH WIND       PRES   REMARKS
SAN ANGELO     SUNNY     89  67  47 S16       29.97F
ABILENE        SUNNY     90  65  43 S21G31    29.97F
DYESS AFB      MOSUNNY   90  67  46 S21G30    29.94F
JUNCTION       MOSUNNY   86  68  54 S16       30.00F
SWEETWATER     SUNNY     89  65  44 S23G29    30.01S
BROWNWOOD      SUNNY     91  61  35 SW21G28   29.98F
COLEMAN        CLEAR     87  66  50 S17G24    29.99F
SONORA         MOSUNNY   84  68  58 S12G21    30.04F
OZONA          FAIR      86  66  51 S15G24    30.02F
BRADY          SUNNY     88  64  45 S13       30.00F
$$

TEXAS PANHANDLE/OKLAHOMA PANHANDLE

CITY           SKY/WX    TMP DP  RH WIND       PRES   REMARKS
AMARILLO       SUNNY     90  62  39 S17G26    29.94F
BORGER         SUNNY     93  61  34 S17G25    29.89F
CANADIAN       SUNNY     91  66  43 S15G22    29.87F
DALHART        SUNNY     93  56  28 S16G23    29.93F
DUMAS          CLEAR     92  60  34 S17G25    29.92F
GUYMON         NOT AVBL
HEREFORD       CLEAR     90  62  39 S20       29.96S
PAMPA          CLEAR     91  59  34 S20G26    29.93F
PERRYTON       SUNNY     94  61  34 S23       29.88F
$$

SOUTHERN PANHANDLE/SOUTH PLAINS/ROLLING PLAINS

CITY           SKY/WX    TMP DP  RH WIND       PRES   REMARKS
LUBBOCK        MOSUNNY   90  64  42 S17       29.96F
SNYDER         SUNNY     88  66  48 S17G24    29.97F
CHILDRESS      SUNNY     93  66  40 S12G24    29.90F
SEMINOLE       CLEAR     91  59  33 S12G22    29.97F
$$

PERMIAN BASIN

CITY           SKY/WX    TMP DP  RH WIND       PRES   REMARKS
MIDLAND        SUNNY     90  64  42 S20       29.96F
ODESSA         SUNNY     88  63  43 SW15G24   29.97F
WINK           SUNNY     91  59  33 SW12G17   29.93F
$$

FAR WEST/SOUTHWEST MOUNTAINS/TRANS PECOS

CITY           SKY/WX    TMP DP  RH WIND       PRES   REMARKS
ALPINE         CLOUDY    78  60  53 SW9       30.15S
DRYDEN           N/A     93  65  39 SE7       29.95F
EL PASO        MOSUNNY   82  57  42 NW7G17    30.02F
FORT STOCKTON  SUNNY     89  61  38 S6        29.98S
GUADALUPE PASS MOSUNNY   79  56  45 W30G40    30.11F
MARFA          CLOUDY    75  59  57 SW9       30.14S
PECOS          CLEAR     91  56  30 SW9       29.93F
$$

DALLAS/FORT WORTH METROPLEX

CITY           SKY/WX    TMP DP  RH WIND       PRES   REMARKS
DFW AIRPORT    MOSUNNY   93  69  45 S16       29.96F
FTW MEACHAM    SUNNY     95  67  39 S16G25    29.95F
DAL-EXECUTIVE  SUNNY     94  69  44 S10G23    29.97F
GRAND PRAIRIE  SUNNY     91  70  49 SE13G18   29.98F
ADDISON        MOSUNNY   90  68  48 S13G24    29.98F
MESQUITE       CLEAR     88  68  51 S13G22    29.98F
LANCASTER      CLEAR     92  67  43 S15G23    29.99S
$$

NORTH CENTRAL TEXAS

CITY           SKY/WX    TMP DP  RH WIND       PRES   REMARKS
SHRMAN/DENISON CLEAR     90  69  49 S15G22    29.98F
GAINESVILLE    SUNNY     88  68  51 S21G29    29.98F
BRIDGEPORT     CLEAR     92  60  34 S14G20    29.96F
DENTON         SUNNY     92  68  45 S16G24    29.95F
WAXAHACHIE     PTCLDY    92  65  41 S16G22    29.99S
GRANBURY       CLEAR     95  65  36 S14G25    29.97F
$$

WESTERN NORTH TEXAS

CITY           SKY/WX    TMP DP  RH WIND       PRES   REMARKS
WICHITA FALLS  MOSUNNY   94  62  34 S18       29.90F
VERNON         CLEAR     96  61  31 S22G29    29.90F
BRECKENRIDGE   CLEAR     94  56  27 S16G26    29.94F HAZE
COMANCHE       SUNNY     92  61  35 S10G23    29.99S
$$

CENTRAL AND SOUTH CENTRAL TEXAS

CITY           SKY/WX    TMP DP  RH WIND       PRES   REMARKS
AUSTIN/BERGSTM PTSUNNY   93  68  43 S9        29.97S
WACO           SUNNY     93  68  43 S22       29.98F
HILLSBORO      CLEAR     92  67  43 S20G26    29.98F
TEMPLE         MOSUNNY   93  66  40 S20       29.98F
KILLEEN-GRAY   PTSUNNY   90  66  45 S16       29.99S
FORT HOOD      MOSUNNY   93  67  42 S13       29.98F
GEORGETOWN     MOSUNNY   93  68  43 S18       29.99F
LAGO VISTA     CLOUDY    91  65  41 S8G22     30.01F
SAN MARCOS     MOSUNNY   95  66  38 S15       29.98F
NEW BRAUNFELS  MOSUNNY   95  67  39 S15G22    29.96F
RANDOLPH AFB   MOSUNNY   93  66  41 S16G22    29.98F
SAN ANTONIO    MOSUNNY   93  67  42 SE17G23   29.98F
STINSON        MOSUNNY   95  69  42 S10G21    29.96F
PLEASANTON     NOT AVBL
LA GRANGE      MOSUNNY   97  74  46 S14G21    29.95F
GIDDINGS       PTCLDY    94  68  42 SW9G16    30.01F
$$

EAST TEXAS

CITY           SKY/WX    TMP DP  RH WIND       PRES   REMARKS
PARIS          SUNNY     90  70  51 S8        30.01S
CLARKSVILLE    CLEAR     90  70  51 SW3       30.01S
TYLER          MOSUNNY   92  71  50 S13       30.01F
LONGVIEW       SUNNY     92  71  50 S16       30.01F
PALESTINE      CLEAR     91  74  58 SE8G18    30.02F
NACOGDOCHES    MOSUNNY   90  73  58 SW8       30.03F
$$

TEXAS HILL COUNTRY AND EDWARDS PLATEAU

CITY           SKY/WX    TMP DP  RH WIND       PRES   REMARKS
LLANO          CLEAR     95  63  34 S14       30.01F
HORSESHOE BAY  FAIR      91  63  39 S8G17     29.99F
KERRVILLE      MOSUNNY   89  66  46 S13G18    30.02S
FREDERICKSBRG  SUNNY     87  62  43 S12G18    30.02S
ROCKSPRINGS    PTCLDY    81  68  65 SE13        N/A
HONDO          MOSUNNY   91  68  46 S12G22    29.99F
UVALDE         PTCLDY    93  69  45 SE12G17   29.97S
DEL RIO        SUNNY     91  69  48 SE15      29.92F
$$

SOUTHEAST TEXAS

CITY           SKY/WX    TMP DP  RH WIND       PRES   REMARKS
COLLEGE STN    MOSUNNY   93  73  52 S12       29.98F
CALDWELL       PTCLDY    93  70  46 S15G21    30.01F
CROCKETT         N/A    N/A N/A N/A MISG        N/A
BRENHAM        SUNNY     95  72  47 S10       29.99F
HUNTSVILLE     MOSUNNY   91  73  55 S8        30.00F
CONROE         PTSUNNY   93  74  53 SE10      30.00F
HOUSTON BUSH   PTSUNNY   94  75  54 S9        29.99F
HOUSTON HOBBY  MOSUNNY   91  76  61 S7        29.99F
PERLAND        MOSUNNY   93  71  48 S14G25    30.01F
WHARTON        PTCLDY    94  73  50 S17       29.99F
$$

THE UPPER TEXAS COAST

CITY           SKY/WX    TMP DP  RH WIND       PRES   REMARKS
ORANGE         CLEAR     91  75  60 S12       30.04S
PORT ARTHUR    PTSUNNY   90  76  63 S14       30.02S
GALVESTON      MOSUNNY   92  80  68 S18       30.02S
ANGLETON       PTSUNNY   90  77  65 S14       30.00S
BAY CITY       MOCLDY    92  76  59 S15       29.99F
$$

TEXAS COASTAL BEND, RIO GRANDE PLAINS DEEP SOUTH TEXAS

CITY           SKY/WX    TMP DP  RH WIND       PRES   REMARKS
VICTORIA       MOSUNNY   93  74  53 S14       29.97F
BEEVILLE       FAIR      94  71  45 S13G22    29.95F
ROCKPORT       MOSUNNY   93  76  57 SE15G26   29.97F
PORT ARANSAS   CLEAR     89  79  71 S10G16    29.98S
PORT LAVACA    MOCLDY    92  74  53 S15G21    29.98F
CORPUS CHRISTI PTSUNNY   93  75  55 S20G31    29.95F
KINGSVILLE NAS PTSUNNY   94  78  60 SE20G25   29.93F
COTULLA        SUNNY     95  65  37 S12G23    29.94F
LAREDO         SUNNY     96  69  41 S16G24    29.94F
BROWNSVILLE    MOSUNNY   94  75  54 SE24G31   29.95S
PORT ISABEL    MOSUNNY   96  73  47 S23G29    29.94F
HEBBRONVILLE   PTCLDY    94  65  38 SE21G30   29.94F
MCALLEN        MOSUNNY   97  70  41 SE22G31   29.92F
WESLACO        MOSUNNY   96  68  39 S16G31    29.92F
FALFURRIAS     PTCLDY   101  83  57 S20G25    29.92F HX 129
EDINBURG       PTCLDY    98  68  38 S14G24    29.92F
$$


USA.gov is the U.S. government's official web portal to all federal, state and local government web resources and services.